Volver al catálogo

COSMOS 2499 DEB

LostPO
NORAD 55728·DEBRIS·🇷🇺 Russia

Lanzado May 23, 2014 desde Plesetsk Cosmodrome

Loading…

Próximos Pases (próximas 24 horas)

TLE

ObsoletoSource: Space-Track

Época: Jul 26, 2023, 09:46 UTC

1 55728U 14028AQ  23207.40739651  .00004751  00000-0  19597-1 0  9990
2 55728  82.3988 244.0288 0059675 296.0744  63.4224 12.83928847 24468

Sigue COSMOS 2499 DEB en tiempo real con AllMySat

Download on the App Store